This is the latest recevied weather packets stored in our database for station/object PE1BMM-13. If no packets are shown the sender has not sent any weather packets the latest 10 day(s).
| Time | Temp. | Humidity | Pressure | Rain* | Wind** | Luminosity | Snow |
|---|---|---|---|---|---|---|---|
| 1777460991 | 15.56° C | 48% | 1028.5 hPa | 0 mm | - | - | - |
| 1777460389 | 15° C | 48% | 1028.7 hPa | 0 mm | - | - | - |
| 1777460090 | 15° C | 46% | 1028.6 hPa | 0 mm | - | - | - |
| 1777459478 | 15° C | 47% | 1028.7 hPa | 0 mm | - | - | - |
| 1777459172 | 15° C | 47% | 1028.8 hPa | 0 mm | - | - | - |
| 1777458866 | 15° C | 46% | 1028.7 hPa | 0 mm | - | - | - |
| 1777458560 | 15° C | 48% | 1028.7 hPa | 0 mm | - | - | - |
| 1777458254 | 15° C | 47% | 1028.6 hPa | 0 mm | - | - | - |
| 1777457948 | 15° C | 50% | 1028.7 hPa | 0 mm | - | - | - |
| 1777457642 | 14.44° C | 49% | 1028.7 hPa | 0 mm | - | - | - |
| 1777457337 | 14.44° C | 48% | 1028.7 hPa | 0 mm | - | - | - |
| 1777457033 | 14.44° C | 49% | 1028.8 hPa | 0 mm | - | - | - |
| 1777456724 | 14.44° C | 51% | 1028.8 hPa | 0 mm | - | - | - |
| 1777455501 | 13.89° C | 54% | 1028.8 hPa | 0 mm | - | - | - |
| 1777455195 | 13.89° C | 53% | 1028.9 hPa | 0 mm | - | - | - |
| 1777454888 | 13.89° C | 54% | 1028.9 hPa | 0 mm | - | - | - |
| 1777454582 | 13.33° C | 56% | 1028.9 hPa | 0 mm | - | - | - |
| 1777454279 | 13.33° C | 55% | 1028.9 hPa | 0 mm | - | - | - |
| 1777453970 | 13.33° C | 55% | 1029 hPa | 0 mm | - | - | - |
| 1777453682 | 13.33° C | 55% | 1028.9 hPa | 0 mm | - | - | - |
| 1777453397 | 13.33° C | 53% | 1029 hPa | 0 mm | - | - | - |
| 1777453052 | 13.33° C | 54% | 1029 hPa | 0 mm | - | - | - |
| 1777452746 | 13.33° C | 57% | 1028.9 hPa | 0 mm | - | - | - |
| 1777452439 | 13.33° C | 56% | 1029.1 hPa | 0 mm | - | - | - |
| 1777451829 | 13.33° C | 55% | 1029.3 hPa | 0 mm | - | - | - |
* Rain latest hour (hover to see other rain measurements)
** Current wind speed in m/s (hover to see current wind gust speed)